AUA51 LOWW-KLAX

Flight info

Callsign AUA51
Flight time N/A
Altitude 38000
Route LANUX DCT VLM DCT HDO DCT BOLBO DCT ESIKA DCT BKD DCT AMRAK DCT GELBA DCT BIVKI DCT ZOL DCT GUNPA/M081F380 DCT 64N010W 66N020W/M082F400 67N030W 6730N04000W 67N050W DCT EPMAN/N0472F400 DCT 65N070W 6330N08000W 6030N09000W DCT YYQ DCT 5530N10000W DCT KU84Q DCT TCH DCT WINEN/N0468F410 Q73 EEVUN/N0460F400 Q73 HAKMN ANJLL4
Aircraft B772/H-SDE2E3FGHIJ5LORVWXY/LB1D1

Departure

Time 2026-05-06 08:13
Airport Vienna International Airport (LOWW)

Arrival

Time N/A
Airport Los Angeles International Airport (KLAX)
Time Latitude Longitude Altitude Speed Heading
2026-05-06 07:21 48.11703 16.56812 614 ft 0 kts 26°
2026-05-06 08:01 48.11697 16.56808 630 ft 4 kts 27°
2026-05-06 08:01 48.11674 16.56788 630 ft 4 kts 36°
2026-05-06 08:01 48.11654 16.56761 630 ft 4 kts 54°
2026-05-06 08:02 48.11644 16.56728 630 ft 4 kts 96°
2026-05-06 08:02 48.11646 16.56714 633 ft 0 kts 116°
2026-05-06 08:07 48.11645 16.56714 632 ft 1 kts 116°
2026-05-06 08:07 48.11627 16.56771 637 ft 11 kts 116°
2026-05-06 08:08 48.11586 16.56893 624 ft 10 kts 115°
2026-05-06 08:08 48.11554 16.56919 621 ft 7 kts 175°
2026-05-06 08:08 48.11473 16.56877 627 ft 14 kts 207°
2026-05-06 08:08 48.11389 16.56818 620 ft 12 kts 194°
2026-05-06 08:09 48.11333 16.56887 624 ft 11 kts 114°
2026-05-06 08:09 48.11299 16.56994 625 ft 11 kts 116°
2026-05-06 08:09 48.11263 16.57105 623 ft 12 kts 116°
2026-05-06 08:09 48.11225 16.57222 624 ft 13 kts 116°
2026-05-06 08:10 48.11179 16.57361 623 ft 16 kts 116°
2026-05-06 08:10 48.11127 16.57517 621 ft 16 kts 116°
2026-05-06 08:10 48.11085 16.57651 621 ft 12 kts 117°
2026-05-06 08:10 48.11075 16.57681 620 ft 0 kts 116°
2026-05-06 08:11 48.11074 16.57683 620 ft 0 kts 116°
2026-05-06 08:11 48.11083 16.57657 627 ft 2 kts 116°
2026-05-06 08:11 48.11089 16.57636 623 ft 4 kts 124°
2026-05-06 08:12 48.11065 16.57655 625 ft 4 kts 165°
2026-05-06 08:12 48.11029 16.57640 624 ft 8 kts 207°
2026-05-06 08:12 48.10969 16.57595 628 ft 11 kts 207°
2026-05-06 08:12 48.10921 16.57531 621 ft 9 kts 262°
2026-05-06 08:13 48.10983 16.57327 624 ft 55 kts 296°
2026-05-06 08:13 48.11294 16.56364 628 ft 148 kts 296°
2026-05-06 08:13 48.11804 16.54814 1006 ft 187 kts 296°
2026-05-06 08:13 48.12405 16.53074 2147 ft 189 kts 289°
2026-05-06 08:14 48.12550 16.51113 3009 ft 201 kts 257°
2026-05-06 08:14 48.12066 16.49030 3265 ft 224 kts 247°
2026-05-06 08:14 48.11545 16.46759 3557 ft 245 kts 260°
2026-05-06 08:14 48.11739 16.44115 3899 ft 265 kts 283°
2026-05-06 08:15 48.12158 16.41376 4599 ft 272 kts 278°
2026-05-06 08:15 48.12483 16.38566 5449 ft 276 kts 276°
2026-05-06 08:15 48.12788 16.35710 6323 ft 279 kts 276°
2026-05-06 08:15 48.13091 16.32831 7175 ft 281 kts 275°
2026-05-06 08:16 48.13395 16.29936 8082 ft 281 kts 275°
2026-05-06 08:16 48.13696 16.27046 8981 ft 281 kts 275°
2026-05-06 08:16 48.13997 16.24149 9848 ft 283 kts 275°
2026-05-06 08:16 48.14592 16.21397 10336 ft 299 kts 297°
2026-05-06 08:17 48.16150 16.19107 10519 ft 333 kts 327°
2026-05-06 08:17 48.18296 16.17612 10793 ft 347 kts 333°
2026-05-06 08:17 48.20495 16.16091 11454 ft 354 kts 331°
2026-05-06 08:17 48.22716 16.14472 12350 ft 355 kts 329°
2026-05-06 08:18 48.24935 16.12832 13276 ft 356 kts 329°
2026-05-06 08:18 48.27163 16.11180 14118 ft 358 kts 328°
2026-05-06 08:18 48.29403 16.09515 14896 ft 361 kts 328°
2026-05-06 08:18 48.31661 16.07835 15681 ft 364 kts 329°
2026-05-06 08:19 48.33943 16.06136 16400 ft 368 kts 329°
2026-05-06 08:19 48.36249 16.04419 17133 ft 371 kts 329°
2026-05-06 08:19 48.38573 16.02686 17878 ft 374 kts 329°
2026-05-06 08:19 48.40917 16.00938 18551 ft 378 kts 329°